Showing default

ORBCOMM FM 119, 41180

Orbit data source: Space-Track

ORBCOMM FM 119, 41180 is a payload satellite owned by Orbcomm (US) in LEO that was launched on Tue, 22 Dec 2015 UTC via an FALCON 9 launch vehicle from the Air Force Eastern Test Range (AFETR). Payload-class satellites include a variety of spacecraft equipped with specific instruments for various scientific and technological missions. These include communications satellites like Starlink; space stations such as the ISS; scientific satellites like the Hubble; Earth observation satellites from companies like Planet Labs, Umbra, and HawkEye 360; GPS; miniature CubeSats for education and research; and military/defense satellites.

Loading next visibility...
Identifier
41180, 2015-081B
Orbit
LEO
Last TLE update
8 hours ago
Origin
Manufacturer
SNC Louisville
Mission
Non-operational Commercial Communications
Bus & Motor
SN-100A, Unknown motor
Mass
172 kg wet, 158 kg dry
Launch date (UTC)
2015-12-22 (9 years ago)
Launch vehicle
FALCON 9
Launch site
Air Force Eastern Test Range (AFETR)
Object type
Payload
Rocket body
Debris
Shape & HBR
Box + 1 Pan + 1 Ant, 13 m
Radar Cross Section
2.222 m², Medium (>0.1 m² and < 1m²)

Expand to show TLE details & history

TLE from 8 hours ago
0 ORBCOMM FM 119
1 41180U 15081B   25169.77177685  .00000304  00000-0  10182-3 0  9992
2 41180  46.9985 188.6790 0000682 348.6486  11.4384 14.58146936505953
Epoch: 2025-06-18T18:31Z
TLE epoch observation values (Epoch: 2025-06-18T18:31:21.519Z)
Latitude
-0.00003°
Longitude
3.59028°
Altitude
698.906 km
Speed
7.508 km/s
True Right ascension
12h 34m 42s
True Declination
0° 00' 00"
Sunlit
Object was in daylight at epoch
Visualization orbit readout
Latitude
38.06204°
Longitude
48.4973°
Altitude
701.513 km
Speed
7.51 km/s
Apparent Right ascension
19h 39m 23s
Apparent Declination
6° 20' 43"
Sunlit
Object is in daylight
Visualization observer readout
Local Sidereal Time
13:50:16
Azimuth
86.857° E
Elevation
6.147°
Doppler factor
1
Orbital elements
Apogee altitude
700.881 km
Perigee altitude
699.916 km
Semi-major axis
7,078.536 km
Eccentricity
0.00007
Inclination
46.9985°
RAAN
188.679°
Arg. of periapsis
348.6486°
True anomaly
Unknown
Mean anomaly
11.4384°
Eccentric anomaly
Unknown
Mean motion
3.64442 °/min
Orbital period
98.78 mins
BSTAR
0.00010182
Loading maneuver chart data...
Loading SW <> Apogee altitude chart data...
Loading historical data...
Loading historical data...
Loading historical data...
Loading historical data...
Loading historical data...
Loading historical data...
Loading historical data...

ORBCOMM FM 119 Visibility forecast

Observer location: undefined°, undefined°

Span
Click to sort rows by Start time (UTC) header in descending order
Start Az.
Max El. time (UTC)
Max El. Az.
Max El.
End time (UTC)
End Az.
9 mins2025-06-19 04:34:21.312Z230.125° WSW2025-06-19 04:39:21.312Z127.262° SE43°2025-06-19 04:43:21.312Z66.022° ENE
8 mins2025-06-19 06:19:21.312Z279.591° WNW2025-06-19 06:23:21.312Z2.428° NNE34.213°2025-06-19 06:27:21.312Z57.662° ENE
7 mins2025-06-19 08:04:21.312Z310.776° NW2025-06-19 08:07:21.312Z12.391° NNE31.398°2025-06-19 08:11:21.312Z72.808° E
8 mins2025-06-19 09:47:21.312Z301.111° NW2025-06-19 09:51:21.312Z52.06° ENE44.021°2025-06-19 09:55:21.312Z111.574° ESE
7 mins2025-06-19 11:31:21.312Z270.433° WNW2025-06-19 11:34:21.312Z222.714° SW24.496°2025-06-19 11:38:21.312Z166.725° S
|